Terminal Aerodrome Forecast
Issued by NWS Jacksonville, FL

Home | Current Version | Previous Version | Text Only | Print | Product List | Glossary On
Versions: 1 2 3 4 5 6 7 8 9 10 11 12
651
FTUS42 KJAX 290557
TAFGNV
TAF
KGNV 290557Z 2906/3006 VRB03KT P6SM SCT050
     FM291400 30008KT P6SM SCT030
     FM300000 35005KT P6SM FEW040 FEW250=

USA.gov is the U.S. government's official web portal to all federal, state and local government web resources and services.